Regional Weather Roundup
Issued by NWS

Home | Current Version | Previous Version | Graphics & Text | Print | Product List | Glossary On
Versions: 1 2 3 4 5 6 7 8 9 10 11 12 13 14 15 16 17 18 19 20 21 22 23 24 25 26 27 28 29 30 31 32 33 34 35 36 37 38 39 40 41 42 43 44 45 46 47 48 49 50
073
ASUS44 KLIX 042305
RWRLA
LOUISIANA WEATHER ROUNDUP
NATIONAL WEATHER SERVICE NEW ORLEANS LA
500 PM CST WED MAR 04 2015

NOTE: "FAIR" INDICATES FEW OR NO CLOUDS BELOW 12,000 FEET WITH NO
      SIGNIFICANT WEATHER AND/OR OBSTRUCTIONS TO VISIBILITY.
      SKY/WX - SKY CONDITION AND SIGNIFICANT WEATHER.
      TMP - AIR TEMPERATURE.    DP   - DEWPOINT TEMPERATURE.
      RH  - RELATIVE HUMIDITY.  PRES - PRESSURE.
      HX  - HEAT INDEX.         WCI  - WIND CHILL INDEX.

*  THESE STATIONS ARE NOT NWS OR FAA STATIONS AND ARE NOT UNDER
   NWS QUALITY CONTROL.

LAZ040-048-061>063-065-066-069-050000-
SOUTHEAST LOUISIANA

CITY           SKY/WX    TMP DP  RH WIND       PRES   REMARKS
N.O. AUDUBON   NOT AVBL
N.O. INTL ARPT NOT AVBL
N.O. LAKEFRONT NOT AVBL
SLIDELL        NOT AVBL
BATON ROUGE    NOT AVBL
BOOTHVILLE     SUNNY     76  71  85 S12       29.93S
BELLE CHASSE   PTSUNNY   80  69  69 S15G24    29.90S
BOGALUSA*      NOT AVBL
GALLIANO*      NOT AVBL
NEW ROADS*     NOT AVBL
GONZALES*      NOT AVBL
HAMMOND*       NOT AVBL
HOUMA*         PTSUNNY   79  70  73 S17       29.90F
PORT FOURCHON* NOT AVBL

$$

LAZ041-044-053-054-050000-
SOUTHWEST LOUISIANA

CITY           SKY/WX    TMP DP  RH WIND       PRES   REMARKS
LAKE CHARLES   NOT AVBL
LAFAYETTE      NOT AVBL
PATTERSON      NOT AVBL
SALT POINT       N/A     72  68  87 SE8       29.87F
NEW IBERIA     NOT AVBL
CHENAULT AIRPK NOT AVBL

$$

LAZ027-028-050000-
CENTRAL LOUISIANA

CITY           SKY/WX    TMP DP  RH WIND       PRES   REMARKS
FORT POLK      NOT AVBL
ALEXANDRIA INT NOT AVBL
ALEXANDRIA     NOT AVBL

$$

LAZ001-002-050000-
NORTHWEST LOUISIANA

CITY           SKY/WX    TMP DP  RH WIND       PRES   REMARKS
SHREVEPORT     NOT AVBL
BARKSDALE AFB  NOT AVBL
DTN SHREVEPORT NOT AVBL

$$

LAZ014-016-050000-
NORTHEAST LOUISIANA

CITY           SKY/WX    TMP DP  RH WIND       PRES   REMARKS
MONROE         NOT AVBL
TALLULAH       NOT AVBL

$$




USA.gov is the U.S. government's official web portal to all federal, state and local government web resources and services.